RH
7 8 9 9 8 7 8 17 30 41 22 20 47 50 20 24 19 17 17 18 18 16 14 10 10 11 11 10 10 8 7 8 8 9 10 10 11 12 12 13 12 10 17 16 14 13 15
14 15 14 11 9 7 6 8 35 12 40 20 23 46 51 21 21 16 14 16 17 17 17 15 13 13 12 12 8 8 9 9 9 8 7 9 9 8 12 14 15 15 16 17 18 14 15
12 11 10 8 7 6 5 4 5 18 9 34 27 24 52 47 22 18 15 13 13 15 15 15 14 14 13 11 9 10 8 7 7 6 6 6 7 8 11 14 12 16 17 18 20 21 15
13 11 10 10 9 8 6 6 5 4 5 10 30 34 25 55 34 20 18 15 13 12 13 13 12 12 11 9 8 7 6 6 5 5 5 6 6 6 7 11 11 13 15 20 25 20 19
15 14 12 10 8 6 5 4 4 4 4 5 18 37 37 28 50 33 20 19 16 14 12 11 12 11 9 8 7 7 6 6 6 7 7 7 7 8 8 10 14 16 16 18 29 30 22
17 15 13 11 8 6 5 4 4 3 3 3 5 25 45 37 35 44 38 18 19 17 15 14 12 11 10 9 9 9 9 9 10 10 8 7 7 7 8 12 12 15 14 15 17 32 35
16 14 12 9 4 3 3 2 2 2 2 3 3 5 49 50 30 40 46 45 17 19 19 19 15 14 12 12 11 12 12 13 13 12 11 10 10 10 13 16 14 13 13 13 23 25 34
17 13 8 5 4 3 2 2 2 2 2 2 3 3 12 58 55 21 42 48 42 15 18 20 20 18 17 16 17 17 17 16 15 14 14 14 13 14 14 14 16 15 15 16 19 37 33
19 10 7 6 4 2 2 2 2 2 2 2 2 3 4 31 42 49 22 42 42 45 21 15 19 20 20 20 19 18 18 18 18 17 19 21 22 22 21 20 19 19 18 19 24 40 42
15 9 7 4 3 3 4 5 5 5 3 2 2 3 3 6 97 39 33 27 41 42 47 32 14 14 16 17 17 18 17 16 15 16 20 23 26 26 26 24 24 24 25 27 23 29 32
11 9 7 3 4 5 5 4 4 5 6 2 2 3 3 7 100 74 40 27 34 42 44 44 38 24 18 14 12 13 13 13 13 18 22 23 25 28 27 29 33 31 35 42 39 42 42
12 10 5 4 5 6 3 2 2 3 4 4 3 3 12 43 85 100 97 29 30 38 41 42 43 42 40 37 34 31 24 19 19 25 29 31 34 33 38 61 65 66 62 66 64 66 46
13 8 4 5 6 4 2 4 43 46 10 4 5 3 78 100 100 100 94 31 35 31 32 35 34 37 39 37 34 30 34 41 30 30 34 39 37 34 32 45 56 52 53 69 73 65 43
11 6 5 5 6 2 3 80 100 100 51 5 6 12 53 76 100 100 100 73 32 33 31 30 28 27 28 30 34 39 40 30 35 37 44 24 12 16 30 60 76 83 93 98 78 62 50
10 6 6 5 5 3 61 58 86 74 47 9 8 100 100 100 100 78 87 72 23 26 30 30 27 24 26 32 37 39 44 40 38 50 18 11 15 26 60 73 99 100 98 95 100 100 97
10 6 6 4 5 3 37 84 86 100 38 39 25 100 100 100 97 100 100 76 37 15 21 31 27 24 24 34 40 43 38 38 63 26 17 12 14 24 27 49 59 53 85 82 94 97 85
10 6 6 4 4 4 85 92 96 73 42 6 94 100 100 100 100 100 88 52 48 23 14 29 24 22 32 41 45 37 32 74 47 25 25 14 19 35 46 41 48 64 72 87 94 100 92
8 5 5 4 4 2 73 100 71 72 93 6 94 100 100 100 100 100 94 58 71 46 16 26 24 25 40 45 41 31 77 42 42 33 37 39 33 51 95 97 70 57 54 67 53 47 76
8 5 5 3 8 2 19 85 81 100 56 44 99 100 100 100 99 71 66 92 83 40 28 25 30 36 43 40 32 72 42 54 63 66 62 68 70 91 98 100 100 100 100 100 97 85 61
8 4 4 6 6 4 16 56 77 98 90 57 100 100 100 95 80 85 100 92 68 46 43 38 38 47 47 29 82 45 43 53 62 64 70 90 100 100 98 100 100 100 100 100 100 79 37
8 4 3 13 25 37 46 90 100 66 90 96 100 100 95 53 61 96 100 100 66 54 46 46 53 47 35 84 86 38 45 69 98 100 97 98 99 100 100 100 98 90 100 83 22 28 42
7 3 3 19 98 69 94 100 100 100 75 100 97 100 82 69 87 98 100 86 64 64 64 62 46 39 80 100 79 41 52 89 100 98 98 100 99 98 99 100 88 56 30 22 18 28 51
6 2 3 21 79 55 79 100 95 72 91 96 100 100 100 100 100 97 73 67 100 92 70 43 66 65 100 100 85 40 62 89 88 98 97 100 96 100 98 98 98 80 50 39 41 47 81
7 2 2 19 82 68 60 100 89 88 100 97 75 90 85 82 75 86 99 100 100 88 45 48 75 91 100 88 85 42 60 81 86 98 98 99 97 100 99 98 99 82 78 84 86 95 98
6 3 2 17 61 73 45 79 94 89 100 99 100 98 93 96 100 89 100 100 98 64 56 64 80 77 73 84 79 67 54 75 85 96 96 96 99 88 98 91 99 100 88 73 84 90 100
6 3 2 14 41 63 69 71 76 77 77 99 100 98 97 100 100 99 91 100 91 72 49 77 99 92 96 90 81 64 47 75 49 68 92 89 86 75 86 93 80 95 100 87 70 75 77
9 5 2 5 26 55 61 73 72 100 97 99 100 98 98 100 89 96 94 100 88 74 82 96 97 90 86 86 83 79 83 48 41 59 69 78 75 73 67 69 80 78 77 68 75 82 88
11 5 3 2 19 43 50 76 85 85 99 100 97 100 99 99 100 100 100 100 89 80 74 98 96 95 88 84 99 94 100 50 38 51 64 64 63 66 62 53 56 68 74 69 65 64 65
11 6 2 2 5 30 43 69 80 84 92 92 97 97 92 95 100 100 93 100 94 78 100 98 96 100 97 98 92 98 96 68 53 46 59 54 51 58 58 56 49 51 57 54 53 63 63
Wind_Speed
29 31 32 34 34 33 32 30 33 32 40 37 39 35 34 36 36 34 32 32 30 31 32 35 36 36 34 32 30 28 29 29 27 26 28 26 26 27 28 30 33 37 34 41 37 37 37
35 36 37 37 36 36 36 35 34 35 34 40 34 41 35 37 37 36 34 33 32 30 30 32 33 34 33 30 30 27 25 26 26 26 26 28 28 29 28 29 33 35 36 35 42 40 39
37 37 36 37 40 41 39 38 38 37 36 41 38 36 44 36 39 38 36 35 34 32 30 29 30 30 30 30 28 26 26 27 27 26 26 27 27 27 29 30 33 34 36 37 36 39 42
40 39 39 40 40 41 41 42 41 42 39 36 43 41 37 45 38 40 40 37 35 33 31 29 28 27 27 26 24 26 25 24 25 27 27 26 27 29 32 32 33 36 37 36 37 39 46
44 45 45 46 46 45 45 46 43 43 43 43 39 45 44 41 46 39 42 41 38 36 33 30 28 27 26 25 25 25 24 24 24 25 27 27 28 30 33 35 35 35 37 37 39 43 46
49 51 52 54 56 55 55 54 53 48 44 45 47 45 50 45 44 46 41 43 41 38 36 32 30 29 28 27 27 25 26 25 25 24 25 27 29 31 33 34 36 38 40 42 42 44 48
54 57 61 63 67 70 69 65 59 52 48 48 51 52 51 51 48 48 48 42 43 43 38 36 33 32 30 29 27 26 26 24 24 25 26 28 30 31 33 34 38 43 43 44 44 45 48
59 62 65 69 73 75 72 71 61 55 50 50 53 56 54 56 52 49 50 47 43 42 42 40 36 34 32 31 30 29 28 27 28 28 30 32 31 32 35 40 41 43 46 47 48 46 48
62 65 71 76 80 72 62 59 57 52 50 51 55 58 59 59 56 55 47 51 49 44 42 41 39 37 36 34 32 31 32 32 33 34 35 36 36 37 41 44 44 46 47 49 51 51 50
66 68 76 81 75 62 54 49 46 44 40 48 57 60 61 58 44 57 52 48 49 47 45 41 40 39 38 36 36 36 37 37 37 38 40 40 38 42 46 49 51 52 52 54 54 55 54
69 77 83 78 65 59 55 48 42 39 35 41 53 58 60 57 45 52 52 50 46 45 48 44 41 37 35 35 34 34 37 38 39 40 41 43 44 46 49 51 55 55 54 55 56 57 58
74 82 84 73 64 58 50 40 31 27 31 37 49 55 51 48 48 43 44 52 49 46 47 44 41 37 36 35 35 34 35 37 38 40 41 44 49 53 54 52 54 55 56 58 59 58 61
79 86 81 70 63 55 40 24 15 14 26 36 44 52 63 59 47 42 45 52 51 50 42 37 36 38 37 34 33 34 34 36 35 39 45 49 51 56 58 56 55 53 52 53 55 59 61
83 87 76 68 61 47 26 5 6 4 20 34 42 49 53 53 48 51 47 48 53 49 43 36 32 31 31 32 34 32 31 31 37 43 44 46 51 49 48 47 45 47 45 47 51 55 58
84 86 74 65 56 37 11 10 15 16 15 30 47 54 65 61 47 40 40 47 51 45 42 37 33 30 28 32 31 29 30 33 36 37 35 30 32 31 25 32 34 38 44 35 42 45 49
84 86 72 62 52 33 11 12 4 4 14 26 59 51 57 51 47 46 48 36 38 45 41 38 33 29 31 30 27 29 30 33 36 29 32 30 42 35 31 29 29 33 30 33 40 46 46
85 85 72 60 47 29 10 9 10 10 12 31 68 46 51 52 51 49 38 28 31 39 41 39 35 32 31 24 25 29 31 33 28 27 28 30 41 37 36 29 25 31 37 37 38 39 37
85 82 71 58 42 26 14 5 7 7 4 34 47 41 52 36 46 40 33 25 24 35 41 37 36 34 25 24 27 30 28 26 20 24 28 31 38 38 35 33 34 32 31 31 34 37 41
84 80 69 54 38 20 9 8 7 8 13 40 59 39 51 44 43 30 29 27 29 35 37 38 36 30 23 24 25 24 17 15 14 20 28 29 33 38 35 29 27 28 33 33 28 29 34
84 78 64 47 27 14 5 12 11 9 15 41 41 28 46 52 38 26 16 25 31 34 34 33 32 25 24 21 21 11 13 13 18 23 26 31 30 24 24 29 33 21 16 18 32 34 27
83 75 55 36 15 14 21 21 12 8 23 43 29 22 47 30 26 23 22 21 26 26 27 29 26 24 20 18 12 8 11 12 16 17 20 18 14 22 26 23 20 19 19 20 11 17 25
80 70 44 22 14 14 13 14 17 9 22 33 29 28 44 34 26 22 22 23 21 24 26 25 19 20 18 8 6 11 10 7 10 8 10 11 14 16 17 8 13 12 12 9 7 12 10
77 65 38 13 4 9 10 13 8 33 33 28 32 26 29 26 26 19 16 18 21 22 23 20 16 20 13 7 6 10 13 5 12 11 9 13 17 14 17 18 14 9 6 6 4 5 11
74 64 33 13 7 7 11 12 26 34 23 20 30 27 25 24 19 19 19 21 18 17 17 17 15 18 13 7 8 10 12 8 11 10 11 14 14 13 13 17 24 4 4 7 5 8 8
71 65 32 9 4 5 14 17 28 32 21 15 12 16 28 17 19 21 16 14 16 13 15 15 13 14 14 14 12 9 12 12 7 8 13 13 14 15 17 19 18 25 20 18 13 19 27
68 64 39 11 12 15 18 29 33 26 24 21 17 20 21 20 22 23 19 12 15 13 15 13 11 11 13 13 12 10 13 13 7 4 3 5 8 10 13 13 17 20 25 22 24 23 20
68 64 45 10 26 24 27 29 30 25 25 23 19 26 25 18 18 18 16 13 16 14 13 12 11 13 13 13 12 11 13 16 10 9 7 5 5 8 9 8 10 10 14 13 13 18 16
69 67 51 15 34 34 34 32 32 31 25 25 18 17 26 20 17 17 17 18 17 14 12 12 11 11 12 13 13 17 14 13 12 15 13 9 6 4 3 6 7 6 7 10 10 10 9
68 68 54 21 19 40 39 35 35 33 26 23 21 21 22 25 26 22 19 16 15 14 10 14 11 10 13 12 11 16 12 13 16 15 18 15 11 8 6 5 5 5 8 8 7 7 7
Wind_Direction
317 317 314 309 306 302 297 294 286 285 263 266 255 256 258 249 245 242 239 236 232 232 233 235 232 231 231 233 234 238 245 250 248 247 254 256 261 265 267 265 262 264 261 254 251 242 242
319 315 311 308 305 302 297 289 287 285 273 260 262 252 254 250 244 241 239 236 232 227 227 229 230 231 231 232 237 237 240 246 249 249 254 260 262 272 273 273 267 265 261 261 250 248 247
315 311 307 306 304 303 300 294 283 278 271 251 255 258 248 251 243 242 239 236 233 230 227 225 228 229 230 231 236 238 239 244 250 255 255 259 265 266 270 271 275 270 266 261 257 250 249
313 310 307 303 301 300 302 297 287 276 268 264 245 253 252 247 247 240 240 238 235 232 228 226 228 229 231 232 236 240 242 244 247 252 256 261 267 273 276 273 272 274 274 267 258 250 247
313 312 311 308 305 301 298 299 294 279 269 258 252 243 250 245 243 242 239 238 237 235 231 227 230 232 233 236 239 243 243 247 249 253 258 264 268 273 275 277 277 279 277 270 259 253 248
316 314 311 310 309 305 300 296 294 286 268 258 248 241 242 245 240 238 239 238 238 237 233 230 229 233 235 237 242 244 251 254 256 257 260 263 265 270 274 278 279 275 275 274 268 253 250
317 317 318 318 316 312 307 300 293 281 269 254 244 239 234 239 241 235 235 237 237 238 236 234 230 232 234 240 245 249 254 258 260 263 264 265 270 274 273 275 276 278 276 275 271 264 254
319 322 320 318 316 312 305 298 287 274 262 248 240 234 230 233 237 237 233 233 236 236 237 236 235 234 237 241 247 251 258 258 261 265 270 271 271 272 273 271 272 273 275 276 275 267 262
323 324 322 321 318 311 301 292 285 275 256 241 231 228 224 229 235 235 232 232 231 234 236 237 236 237 239 242 248 253 257 260 266 270 273 274 276 275 277 277 276 275 274 272 270 265 263
326 326 327 328 323 316 309 299 286 276 257 238 226 223 218 222 232 232 229 230 232 231 235 236 238 236 241 243 247 252 259 265 268 272 272 275 279 278 275 275 276 275 272 268 267 265 261
331 332 332 332 329 321 312 302 288 271 256 233 222 219 214 208 222 232 232 227 229 231 235 233 234 240 244 250 253 254 261 267 270 271 275 281 280 278 278 278 273 273 269 268 266 265 262
334 336 335 335 331 325 317 307 294 271 245 229 216 212 204 204 211 222 230 225 225 228 233 235 237 240 244 250 254 260 263 267 271 276 281 284 283 282 280 275 271 267 265 263 261 260 259
338 339 337 336 333 330 320 318 331 274 242 220 211 205 187 189 198 208 227 223 225 225 227 231 236 241 244 250 255 259 265 274 278 283 287 287 289 286 281 273 266 262 260 259 259 258 260
340 339 338 337 334 333 320 97 94 328 267 214 200 184 195 200 195 203 217 218 221 223 226 230 234 241 243 248 254 263 272 282 284 288 293 295 289 283 274 266 261 257 255 257 261 259 260
341 340 339 339 334 334 329 251 235 273 262 204 188 164 176 185 194 210 219 226 221 221 223 226 232 239 244 249 260 269 279 279 285 287 295 302 318 318 288 263 253 261 258 261 261 260 262
343 341 339 340 335 333 265 271 123 273 217 209 184 171 174 181 188 200 215 228 223 220 219 224 228 233 245 255 264 270 273 282 280 276 293 297 303 315 312 284 269 268 265 259 261 255 254
344 342 339 340 336 332 258 279 218 258 225 198 180 175 177 183 193 195 204 220 216 214 215 220 224 231 242 253 264 267 278 277 277 278 286 288 294 304 301 301 280 264 258 259 257 254 257
345 343 340 341 339 329 240 277 272 328 193 193 179 175 185 188 183 185 201 208 219 212 213 215 222 231 242 253 260 273 278 279 282 273 283 283 290 293 293 280 272 274 269 257 254 256 248
347 345 342 342 341 327 236 192 123 121 187 184 169 177 185 184 182 185 198 210 217 207 206 210 219 228 237 248 263 275 276 295 297 284 295 300 298 298 301 298 292 295 265 257 260 251 240
348 347 344 345 344 331 184 136 126 170 151 181 166 150 177 185 183 176 183 196 195 200 203 208 217 225 235 252 260 282 283 302 306 298 298 295 301 306 314 312 308 282 292 285 258 256 228
350 349 349 353 6 83 99 83 89 190 167 173 166 145 167 175 169 179 195 190 194 198 202 207 212 224 236 239 272 277 283 306 308 297 298 307 339 333 338 329 294 271 276 268 243 216 222
352 352 354 5 84 119 94 63 127 160 162 167 153 151 166 179 170 184 202 197 190 195 199 205 213 218 218 249 285 270 268 300 338 346 342 344 3 4 28 8 30 37 40 24 207 225 214
355 355 358 7 59 147 124 90 160 156 150 167 167 159 165 183 192 195 176 185 194 200 207 210 210 214 212 244 262 253 267 296 324 8 27 43 44 33 21 9 20 33 103 104 132 179 187
356 356 353 3 51 173 172 133 169 156 148 162 176 174 173 162 171 166 182 196 202 200 207 217 219 220 227 225 245 235 249 267 306 16 53 59 49 38 31 28 36 26 160 112 97 151 154
357 357 352 327 170 163 177 173 162 164 148 137 186 186 181 188 178 176 181 188 195 196 209 225 228 232 237 238 246 243 223 253 290 17 76 55 61 50 49 74 82 68 76 103 126 135 140
357 357 357 249 220 178 182 176 165 176 183 165 186 194 186 202 204 197 200 193 192 196 216 233 246 252 243 241 233 223 218 233 238 193 116 78 73 70 61 85 82 75 88 100 118 129 126
356 354 352 264 212 205 196 194 195 173 171 183 189 193 178 182 188 196 203 208 198 207 224 234 248 254 242 239 249 246 232 230 230 213 173 157 115 106 101 83 91 99 93 106 113 118 121
353 354 347 325 212 207 208 203 197 192 198 200 217 183 200 202 194 205 214 215 194 211 230 236 250 241 232 243 276 257 228 223 219 207 204 202 201 182 149 132 131 133 130 137 146 153 163
353 355 348 335 222 209 211 205 192 198 201 209 200 196 195 202 216 226 232 218 197 215 230 248 252 257 249 246 251 226 214 210 215 207 203 214 220 206 201 193 186 164 172 178 181 184 195